Location: Gallinara
(44.0333°N, 8.2333°E)
Time: 16:22:11
(UTC+00:00)

CZ-2C R/B - Pass Details

Date: 25 September 2020
Orbit: 503 x 566 km, 97.7° (Epoch: 28 October)

Event Time Altitude Azimuth Distance (km) Brightness Sun altitude
Rises 03:53:11 0° 359° (N) 2,657 6.5 -15.9°
Reaches altitude 10° 03:55:34 10° 345° (NNW) 1,775 5.4 -15.5°
Maximum altitude 03:58:37 23° 292° (WNW) 1,164 4.0 -15.0°
Enters shadow 03:58:46 23° 288° (WNW) 1,166 4.0 -15.0°
